Theta_e
289 290 290 290 290 289 288 290 290 291 291 292 292 292 293 293 294 294 293 294 293 293 293 293 293 293 293 293 293 293 293 295 298 290 290 288 288 286 285 285 283 284 284
287 288 288 288 287 287 287 286 286 287 290 291 290 290 291 291 292 292 292 292 292 292 292 292 292 292 292 292 291 291 291 292 295 288 288 287 287 286 284 284 283 282 283
286 287 287 287 286 284 283 284 285 285 285 286 290 290 290 290 290 291 291 291 291 291 291 291 291 291 291 291 290 290 290 290 291 289 286 286 285 285 283 282 281 281 281
285 285 286 285 285 284 283 283 283 283 284 284 285 285 288 289 289 289 289 290 290 290 290 290 290 290 290 290 290 290 289 289 288 289 285 284 283 282 282 281 281 281 282
285 284 284 284 283 282 282 282 282 283 283 283 283 284 285 287 288 288 288 288 288 288 289 289 289 289 289 289 290 289 288 288 287 287 286 283 282 281 281 281 282 282 282
284 284 283 282 282 282 281 280 281 282 282 282 283 283 284 285 286 287 287 287 287 287 287 288 287 288 288 288 288 289 288 288 287 287 286 285 283 282 281 282 282 284 283
284 283 283 282 282 281 280 280 280 280 281 281 282 283 283 284 285 286 287 287 287 287 287 287 287 287 286 286 287 288 288 288 289 288 287 286 284 282 282 282 282 283 284
284 283 283 282 281 281 279 278 278 279 279 279 280 281 282 283 284 285 286 287 287 287 287 287 286 286 286 285 285 287 287 287 288 288 287 287 285 283 283 283 282 283 282
283 282 282 281 281 280 278 277 277 277 277 278 278 279 280 281 282 284 285 286 287 287 287 287 287 286 286 285 284 285 286 286 286 287 286 286 285 284 284 282 282 282 282
281 280 280 280 279 278 277 277 276 276 276 276 276 277 278 279 280 282 283 285 286 286 287 287 287 286 286 286 285 285 285 286 285 285 284 284 283 283 283 282 282 282 281
278 278 277 277 277 276 276 275 275 274 274 274 274 275 276 277 279 281 282 284 285 286 286 287 287 287 286 286 286 284 285 285 285 283 283 282 282 282 282 281 281 281 280
274 273 273 273 273 273 272 272 272 272 272 272 273 274 275 276 278 280 282 283 284 285 286 286 287 287 287 286 286 285 285 285 284 283 281 281 281 281 280 280 280 280 279
269 268 268 268 268 268 269 269 270 270 271 271 272 273 274 275 277 279 281 282 283 284 285 286 286 287 287 286 285 285 285 285 283 282 280 281 281 280 280 279 278 278 277
265 265 265 265 265 265 266 266 267 268 268 269 270 271 272 274 275 278 281 282 282 282 282 284 285 286 287 285 284 285 285 285 283 282 281 281 281 279 277 276 275 274 274
264 264 264 264 264 264 264 265 265 265 266 267 268 269 270 271 272 274 276 280 281 281 281 282 284 285 286 284 283 283 284 284 283 281 282 281 278 276 275 275 274 273 273
263 263 264 264 264 264 264 264 265 266 267 267 268 269 270 271 272 274 275 277 278 280 283 282 283 284 284 282 283 283 283 284 282 281 281 278 276 276 274 274 273 273 273
262 262 263 263 263 264 264 264 265 265 265 266 267 268 269 270 272 273 275 276 278 280 283 283 283 283 283 282 283 283 283 281 280 279 277 276 275 274 273 273 273 272 272
262 262 263 263 264 264 264 265 265 265 265 265 266 267 268 269 271 272 274 276 279 280 284 283 283 282 282 282 282 283 281 278 277 276 275 275 274 273 273 272 272 272 271
262 262 263 264 265 265 265 265 265 266 266 266 267 267 268 269 271 273 275 276 280 282 283 283 282 282 282 282 281 279 278 277 276 275 275 274 273 273 272 272 271 271 271
262 263 263 264 265 265 266 266 266 267 267 267 267 268 268 269 271 274 277 278 278 279 282 282 282 282 281 279 278 277 275 275 274 274 273 272 271 271 270 270 269 269 269
263 264 264 264 265 265 266 267 268 269 270 270 269 269 271 273 275 276 277 278 279 283 282 282 280 279 278 278 275 274 274 273 272 270 270 269 270 269 269 269 269 268 268
262 263 263 264 265 266 266 267 268 268 269 269 270 271 272 272 273 273 274 274 277 279 279 278 277 277 276 275 273 272 271 270 269 268 268 268 268 268 268 268 267 267 267
262 262 263 264 265 265 266 266 266 267 267 267 267 267 267 267 267 267 267 268 270 272 273 273 272 271 272 271 271 270 269 268 268 269 268 267 267 267 267 267 267 267 267
261 261 262 263 263 264 265 265 265 265 265 265 265 265 265 265 265 265 265 266 266 267 268 268 269 269 269 270 270 269 269 269 269 269 269 268 267 267 267 266 266 266 266
260 261 261 262 262 263 263 264 264 264 264 264 264 264 264 264 263 263 263 264 264 265 265 266 266 267 267 267 268 267 267 268 268 269 269 268 267 267 266 266 266 266 266
260 261 260 260 261 261 262 262 263 263 263 263 263 263 263 263 263 262 262 263 263 263 263 264 265 266 266 267 267 268 269 269 269 269 268 268 267 266 266 266 266 266 266
Wind_Speed
17 17 17 17 16 17 18 18 21 20 18 16 17 17 18 22 23 26 28 29 31 32 33 33 35 36 32 32 35 34 30 21 6 5 21 21 30 30 29 28 23 21 18
16 15 14 15 17 19 20 22 25 23 22 19 17 16 17 19 22 26 27 29 30 30 33 33 34 32 35 31 32 32 33 32 18 11 20 22 25 30 31 26 24 22 20
15 14 15 16 20 24 25 24 25 26 25 22 22 20 17 18 21 24 28 29 30 32 32 34 34 36 36 35 33 32 32 32 30 18 12 21 20 29 26 23 21 20 21
13 15 15 16 16 19 24 26 26 26 24 25 24 22 22 21 21 24 26 28 29 30 33 36 35 38 39 39 37 37 33 33 32 23 18 19 22 23 29 26 21 23 20
15 16 16 17 19 24 26 27 28 27 28 27 27 26 23 20 21 23 25 27 30 31 33 35 40 40 42 42 41 37 36 34 29 27 18 15 19 18 26 22 21 20 23
25 27 27 27 26 22 22 23 22 24 28 27 29 27 26 22 21 22 25 28 29 31 33 34 38 41 47 47 47 45 45 43 34 31 28 26 28 28 29 26 23 14 7
25 28 31 29 27 27 29 29 25 23 24 24 27 25 27 26 22 22 24 29 31 33 33 32 34 38 40 42 46 44 47 51 50 46 38 34 30 35 34 27 28 28 16
20 22 25 24 27 28 28 27 28 26 27 27 27 27 29 31 25 24 26 28 31 34 35 35 35 37 37 37 35 38 44 44 51 46 45 40 38 38 40 39 34 26 16
21 23 24 24 25 26 29 32 31 28 30 31 31 31 30 34 30 29 27 28 30 33 33 35 37 37 38 36 36 38 39 43 38 43 39 35 39 38 41 35 30 24 8
23 25 26 26 27 29 29 30 33 31 32 32 35 35 35 38 37 33 30 29 30 31 31 34 37 41 37 36 38 37 36 39 33 31 30 27 27 33 38 41 38 29 12
25 27 28 29 30 32 34 34 33 34 34 37 37 40 38 38 40 38 35 32 32 31 30 30 32 33 38 39 41 40 43 31 31 30 32 30 29 33 36 35 38 35 24
28 31 31 31 32 33 34 36 35 35 35 37 35 37 38 39 37 36 36 35 35 32 33 32 31 31 33 36 42 43 42 36 33 35 33 34 33 33 31 32 30 30 25
33 33 33 33 32 32 33 34 33 32 32 33 32 33 35 35 34 36 36 36 35 35 36 36 35 32 31 35 39 41 40 39 33 34 34 36 35 32 30 31 27 28 23
31 32 31 31 32 31 31 30 31 30 30 31 30 30 33 34 34 32 25 25 28 30 33 35 36 33 34 31 34 39 38 37 33 34 30 29 31 34 34 34 29 28 23
30 30 30 29 29 31 30 30 31 32 34 35 34 35 33 32 34 34 34 28 23 26 25 26 27 27 28 28 28 30 33 32 30 32 28 29 31 34 31 33 30 27 16
30 29 29 31 31 31 31 32 32 37 39 41 43 45 43 48 49 47 46 45 42 39 29 24 24 24 23 25 27 26 31 31 31 29 26 27 27 30 28 28 29 26 21
31 32 31 31 31 31 30 29 27 34 37 38 39 40 42 44 45 45 44 43 41 39 34 26 23 22 22 25 25 26 28 24 29 29 29 28 26 26 30 28 28 26 20
31 33 32 31 31 30 31 31 31 29 25 33 36 35 36 37 38 38 38 38 35 37 33 25 22 22 22 22 23 24 22 27 27 28 30 29 28 28 26 25 25 25 21
30 30 30 31 31 32 32 31 30 30 29 30 33 34 30 31 30 31 32 33 27 18 23 23 21 21 22 23 20 23 28 30 32 30 29 28 28 28 23 23 22 22 22
27 29 31 30 30 30 29 28 28 27 27 27 26 28 29 25 22 23 17 18 21 21 22 14 17 19 20 22 24 23 24 25 27 27 27 28 28 27 24 23 22 21 17
28 29 29 28 27 28 28 27 27 27 24 25 26 28 29 27 22 17 19 20 22 19 13 11 14 19 24 27 25 25 25 24 26 28 29 29 30 26 25 22 21 20 19
25 25 26 26 27 26 26 26 23 23 22 22 21 19 21 18 16 13 13 14 14 15 17 22 21 21 24 28 28 27 26 26 27 28 28 29 28 28 26 24 22 20 19
22 24 25 25 25 26 24 23 21 20 21 21 20 19 19 17 15 16 16 15 14 15 14 16 19 21 21 23 24 28 28 27 29 33 32 30 29 28 25 23 21 19 16
22 22 23 23 23 24 23 22 21 21 20 20 21 20 19 18 17 17 17 16 15 14 12 13 15 18 19 19 20 21 24 27 30 32 35 33 30 28 25 23 21 19 17
20 21 20 21 21 22 23 22 22 21 20 20 20 20 20 19 19 20 20 20 19 20 18 17 17 16 17 17 18 18 22 29 31 31 30 28 27 24 22 21 19 16 13
19 20 19 20 20 20 20 21 22 22 21 20 20 21 21 21 22 22 23 23 24 25 25 24 22 23 23 22 22 23 24 25 24 22 22 22 21 20 19 18 16 14 11
Wind_Direction
15 13 11 10 9 8 10 5 360 355 338 321 303 286 268 261 247 241 236 234 231 231 228 225 222 219 218 221 223 224 221 213 196 144 194 198 193 200 210 211 219 225 222
1 4 7 7 8 6 360 358 2 358 355 343 326 301 283 273 262 248 241 239 238 237 232 227 225 219 219 216 215 218 222 219 208 162 176 182 197 201 211 214 219 225 224
350 353 356 358 358 360 0 355 353 353 354 352 344 328 308 288 273 262 251 246 241 238 241 237 229 219 217 214 213 212 213 217 211 190 175 189 190 196 197 214 219 231 231
343 344 345 346 344 343 345 349 348 347 343 344 343 334 325 312 290 275 266 257 251 246 241 238 238 228 223 215 211 210 206 205 206 195 189 179 188 198 196 195 210 220 229
331 331 329 328 327 325 331 334 336 334 335 333 333 332 325 308 298 293 277 267 257 254 247 243 238 234 233 225 216 209 203 204 199 195 190 181 189 177 198 195 196 212 224
319 318 320 321 323 319 318 317 320 319 321 320 321 318 317 309 296 278 270 266 263 257 254 249 244 241 235 234 227 225 213 204 202 201 201 201 198 195 190 190 183 171 204
305 309 312 312 311 311 313 316 315 308 306 305 305 304 302 300 295 286 275 267 262 259 259 257 251 244 238 231 227 224 226 221 221 210 205 210 198 194 189 187 190 188 184
286 289 294 298 297 301 305 305 306 306 302 300 295 294 294 293 293 289 281 270 264 260 254 251 252 250 240 227 223 222 223 221 220 216 216 216 212 203 202 199 195 188 167
289 292 290 288 287 288 290 298 299 299 297 295 293 291 287 287 288 286 284 273 265 261 258 252 246 250 247 234 218 221 223 226 222 220 223 216 214 210 210 190 173 176 181
301 296 293 289 284 282 282 285 290 289 287 288 288 285 283 281 282 278 277 271 267 264 262 255 250 245 245 238 226 220 223 224 214 209 210 204 196 191 202 202 188 183 167
304 299 296 291 288 285 284 283 285 285 283 282 281 282 279 274 274 273 270 263 258 262 260 257 252 246 240 237 229 223 226 219 213 206 200 198 191 183 185 192 197 192 179
309 302 298 295 293 290 288 287 285 283 280 279 279 279 278 276 272 270 266 260 258 256 258 259 255 248 238 233 231 226 226 220 206 196 191 197 192 187 187 184 186 192 193
310 306 304 302 297 294 291 289 287 284 279 278 278 276 277 278 277 271 266 263 262 259 257 257 256 253 238 230 229 228 223 219 203 196 196 197 198 191 183 173 174 189 185
304 304 304 302 300 297 292 289 286 284 282 279 277 276 277 277 273 270 266 264 259 261 263 263 257 253 232 222 220 224 220 216 206 199 199 200 187 178 166 166 161 164 167
304 302 301 298 297 296 290 287 284 280 278 277 275 274 274 273 271 275 274 267 261 253 266 269 260 243 224 206 214 213 213 213 201 200 198 190 177 168 168 167 163 163 172
302 302 301 300 297 294 292 291 287 287 287 284 282 280 278 273 274 272 270 267 267 269 260 250 258 240 217 206 206 203 206 206 199 188 182 175 173 171 164 162 160 168 172
298 298 297 297 294 293 293 292 293 292 290 288 286 284 280 279 276 273 271 269 266 262 251 246 248 235 217 210 207 203 203 191 179 171 165 166 168 170 166 166 166 164 170
295 295 293 292 292 292 292 291 290 290 292 292 290 288 286 283 280 276 272 266 263 252 244 237 243 222 210 207 204 201 182 163 166 162 162 166 171 168 170 169 168 164 161
299 296 296 295 295 294 293 291 289 289 288 288 293 294 289 289 285 278 270 258 266 240 243 223 236 213 201 195 191 165 167 169 170 167 165 165 168 167 167 163 160 156 150
305 302 301 299 300 300 298 294 292 289 287 287 288 288 294 297 289 284 275 271 269 257 249 211 209 192 187 161 161 162 162 162 161 161 157 157 157 157 152 147 146 144 148
310 309 310 309 306 304 302 300 300 298 291 283 280 284 294 290 293 306 298 280 272 232 189 178 167 153 156 162 159 160 161 157 156 151 150 149 148 144 145 143 148 156 156
317 315 315 314 312 312 313 314 320 323 325 331 340 334 342 354 347 355 2 3 62 115 150 158 152 159 163 159 155 152 152 149 149 148 145 145 142 143 143 146 150 153 159
324 323 323 323 323 324 324 329 333 339 342 344 347 351 359 3 9 12 19 27 63 89 116 138 145 139 145 148 153 158 155 155 157 159 150 146 147 147 149 149 151 154 164
330 331 330 330 332 334 336 337 341 348 356 359 359 2 7 12 17 24 32 42 60 72 88 104 117 128 140 148 160 168 170 168 168 164 161 153 151 156 154 156 164 168 170
340 338 337 338 339 341 343 346 350 355 2 10 12 13 15 21 28 34 42 55 67 75 81 95 107 118 129 137 145 152 152 159 158 158 158 156 156 160 162 165 168 172 176
345 346 347 347 347 348 352 354 358 2 7 14 22 25 26 29 34 39 45 55 65 76 87 92 99 108 114 120 128 136 142 144 145 148 150 150 154 161 167 172 177 184 191